,,PA_Meas_PMT16A,,PR_Meas_QMR101_102,,RH_Meas_QMH101,,SR_Meas_QMS101,,TA_Meas_QMH101,,GenWind,,GenWind,
time,status,PA,status,PR,status,RH,status,SR,status,TA,status,DirAvg,status,SpdAvg,
2011-05-10, 00:00:04,VALID,919.115,VALID,0,VALID,91.3743,VALID,0,VALID,19.8798,VALID,5,VALID,0,
2011-05-10, 00:01:04,VALID,919.13,VALID,0,VALID,90.6348,VALID,0,VALID,19.8798,VALID,5,VALID,0,
2011-05-10, 00:02:04,VALID,919.119,VALID,0,VALID,90.5052,VALID,0,VALID,19.8993,VALID,5,VALID,0,
2011-05-10, 00:03:04,VALID,919.103,VALID,0,VALID,90.9092,VALID,0,VALID,19.8978,VALID,5,VALID,0.690625,
2011-05-10, 00:04:04,VALID,919.108,VALID,0,VALID,90.9855,VALID,0,VALID,19.9368,VALID,5,VALID,0.474219,
2011-05-10, 00:05:04,VALID,919.1,VALID,0,VALID,89.7352,VALID,0,VALID,19.9578,VALID,5,VALID,0,
2011-05-10, 00:06:04,VALID,919.084,VALID,0,VALID,89.842,VALID,0,VALID,19.9773,VALID,5,VALID,0,
2011-05-10, 00:07:04,VALID,919.086,VALID,0,VALID,89.9334,VALID,0,VALID,19.9773,VALID,5,VALID,0.205469,
2011-05-10, 00:08:04,VALID,919.059,VALID,0,VALID,90.4518,VALID,0.107441,VALID,19.9953,VALID,5,VALID,0.523438,
2011-05-10, 00:09:04,VALID,919.086,VALID,0,VALID,90.8711,VALID,0,VALID,19.9953,VALID,5,VALID,0.635156,
2011-05-10, 00:10:04,VALID,919.093,VALID,0,VALID,90.7644,VALID,0,VALID,20.0148,VALID,5,VALID,0.559766,
2011-05-10, 00:11:04,VALID,919.074,VALID,0,VALID,90.9321,VALID,0,VALID,20.0538,VALID,5,VALID,0.88125,
2011-05-10, 00:12:04,VALID,919.069,VALID,0,VALID,90.3756,VALID,0.107441,VALID,20.0718,VALID,5,VALID,0.605078,
2011-05-10, 00:13:04,VALID,919.023,VALID,0,VALID,90.5433,VALID,0.107441,VALID,20.0718,VALID,5,VALID,0.665234,
2011-05-10, 00:14:04,VALID,919.053,VALID,0,VALID,90.5814,VALID,0,VALID,20.0718,VALID,5,VALID,0.734375,
2011-05-10, 00:15:04,VALID,919.064,VALID,0,VALID,90.0859,VALID,0.107441,VALID,20.0718,VALID,5,VALID,0.2375,
2011-05-10, 00:16:04,VALID,919.055,VALID,0,VALID,90.1393,VALID,0,VALID,20.0913,VALID,5,VALID,0.1,
2011-05-10, 00:17:04,VALID,919.042,VALID,0,VALID,90.246,VALID,0.107441,VALID,20.1303,VALID,5,VALID,0.100391,
2011-05-10, 00:18:04,VALID,919.032,VALID,0,VALID,89.8343,VALID,0,VALID,20.1303,VALID,5,VALID,0,
2011-05-10, 00:19:04,VALID,919.036,VALID,0,VALID,89.8953,VALID,0,VALID,20.2098,VALID,5,VALID,0,
2011-05-10, 00:20:04,VALID,919.024,VALID,0,VALID,89.6437,VALID,0,VALID,20.2473,VALID,5,VALID,0,
2011-05-10, 00:21:04,VALID,918.987,VALID,0,VALID,89.3083,VALID,0,VALID,20.3058,VALID,5,VALID,0,
2011-05-10, 00:22:04,VALID,918.968,VALID,0,VALID,89.1177,VALID,0,VALID,20.3448,VALID,5,VALID,0,
2011-05-10, 00:23:04,VALID,918.953,VALID,0,VALID,88.0505,VALID,0,VALID,20.3479,VALID,5,VALID,0.176953,
2011-05-10, 00:24:04,VALID,918.93,VALID,0,VALID,89.3312,VALID,0,VALID,20.3074,VALID,5,VALID,0.0898438,
2011-05-10, 00:25:04,VALID,918.941,VALID,0,VALID,89.1025,VALID,0,VALID,20.3074,VALID,5,VALID,0.0640625,
2011-05-10, 00:26:04,VALID,918.912,VALID,0,VALID,88.8585,VALID,0,VALID,20.2879,VALID,5,VALID,0,
2011-05-10, 00:27:04,VALID,918.899,VALID,0,VALID,89.5294,VALID,0,VALID,20.2894,VALID,5,VALID,0,
2011-05-10, 00:28:04,VALID,918.865,VALID,0,VALID,89.598,VALID,0,VALID,20.2489,VALID,5,VALID,0.3125,
2011-05-10, 00:29:04,VALID,918.879,VALID,0,VALID,89.9334,VALID,0,VALID,20.2098,VALID,5,VALID,0.146484,
2011-05-10, 00:30:04,VALID,918.854,VALID,0,VALID,90.3527,VALID,0,VALID,20.1903,VALID,5,VALID,0.191016,
2011-05-10, 00:31:04,VALID,918.842,VALID,0,VALID,90.0859,VALID,0,VALID,20.1513,VALID,5,VALID,0,
2011-05-10, 00:32:04,VALID,918.79,VALID,0,VALID,89.9182,VALID,0,VALID,20.1513,VALID,5,VALID,0,
2011-05-10, 00:33:04,VALID,918.802,VALID,0,VALID,90.1012,VALID,0,VALID,20.1318,VALID,5,VALID,0,
2011-05-10, 00:34:04,VALID,918.752,VALID,0,VALID,90.3451,VALID,0,VALID,20.1513,VALID,5,VALID,0,
2011-05-10, 00:35:04,VALID,918.765,VALID,0,VALID,89.4379,VALID,0,VALID,20.1123,VALID,5,VALID,0,
2011-05-10, 00:36:04,VALID,918.755,VALID,0,VALID,86.0531,VALID,0,VALID,20.0343,VALID,5,VALID,0.134766,
2011-05-10, 00:37:04,VALID,918.743,VALID,0,VALID,89.8115,VALID,0,VALID,19.9773,VALID,5,VALID,0.0371094,
2011-05-10, 00:38:04,VALID,918.707,VALID,0,VALID,91.3438,VALID,0,VALID,19.9563,VALID,5,VALID,0.205859,
2011-05-10, 00:39:04,VALID,918.699,VALID,0,VALID,91.6411,VALID,0,VALID,19.9368,VALID,5,VALID,0,
2011-05-10, 00:40:04,VALID,918.658,VALID,0,VALID,91.7707,VALID,0,VALID,19.9158,VALID,5,VALID,0.242188,
2011-05-10, 00:41:04,VALID,918.64,VALID,0,VALID,91.8317,VALID,0,VALID,19.8768,VALID,5,VALID,0.0390625,
2011-05-10, 00:42:04,VALID,918.658,VALID,0,VALID,91.5344,VALID,0,VALID,19.8768,VALID,5,VALID,0.316406,
2011-05-10, 00:43:04,VALID,918.641,VALID,0,VALID,91.7097,VALID,0.107441,VALID,19.8783,VALID,5,VALID,0.144922,
2011-05-10, 00:44:04,VALID,918.612,VALID,0,VALID,91.9994,VALID,0,VALID,19.8183,VALID,5,VALID,0.133984,
2011-05-10, 00:45:04,VALID,918.614,VALID,0,VALID,92.1442,VALID,0.107441,VALID,19.8183,VALID,5,VALID,0,
2011-05-10, 00:46:04,VALID,918.596,VALID,0,VALID,92.0451,VALID,0.107441,VALID,19.7988,VALID,5,VALID,0,
2011-05-10, 00:47:04,VALID,918.639,VALID,0,VALID,92.2052,VALID,0,VALID,19.7988,VALID,5,VALID,0,
2011-05-10, 00:48:04,VALID,918.633,VALID,0,VALID,91.9994,VALID,0.107441,VALID,19.7793,VALID,5,VALID,0,
2011-05-10, 00:49:04,VALID,918.58,VALID,0,VALID,91.9765,VALID,0.107441,VALID,19.7793,VALID,5,VALID,0,
2011-05-10, 00:50:04,VALID,918.545,VALID,0,VALID,91.5039,VALID,0,VALID,19.7598,VALID,5,VALID,0.501172,
2011-05-10, 00:51:04,VALID,918.555,VALID,0,VALID,92.0604,VALID,0.107441,VALID,19.7208,VALID,5,VALID,0.476172,
2011-05-10, 00:52:04,VALID,918.55,VALID,0,VALID,92.5025,VALID,0.107441,VALID,19.6818,VALID,5,VALID,0.277734,
2011-05-10, 00:53:04,VALID,918.553,VALID,0,VALID,92.9371,VALID,0,VALID,19.6638,VALID,5,VALID,0.289453,
2011-05-10, 00:54:04,VALID,918.567,VALID,0,VALID,92.9981,VALID,0,VALID,19.6443,VALID,5,VALID,0.0792969,
2011-05-10, 00:55:04,VALID,918.557,VALID,0,VALID,93.242,VALID,0,VALID,19.6848,VALID,5,VALID,0.214844,
2011-05-10, 00:56:04,VALID,918.552,VALID,0,VALID,93.3564,VALID,0,VALID,19.6848,VALID,5,VALID,0.285156,
2011-05-10, 00:57:04,VALID,918.507,VALID,0,VALID,93.303,VALID,0,VALID,19.6638,VALID,5,VALID,0.477344,
2011-05-10, 00:58:04,VALID,918.512,VALID,0,VALID,93.181,VALID,0,VALID,19.6848,VALID,5,VALID,0.221094,
2011-05-10, 00:59:04,VALID,918.51,VALID,0,VALID,93.242,VALID,0,VALID,19.6638,VALID,5,VALID,0.364453,
2011-05-10, 01:00:04,VALID,918.478,VALID,0,VALID,93.1505,VALID,0,VALID,19.6653,VALID,5,VALID,0.138672,
2011-05-10, 01:01:04,VALID,918.442,VALID,0,VALID,93.0438,VALID,0,VALID,19.6443,VALID,5,VALID,0,
2011-05-10, 01:02:04,VALID,918.471,VALID,0,VALID,92.9599,VALID,0,VALID,19.6248,VALID,5,VALID,0,
2011-05-10, 01:03:04,VALID,918.461,VALID,0,VALID,92.9981,VALID,0,VALID,19.6248,VALID,5,VALID,0,
2011-05-10, 01:04:04,VALID,918.417,VALID,0,VALID,93.1353,VALID,0,VALID,19.6458,VALID,5,VALID,0.135156,
2011-05-10, 01:05:04,VALID,918.403,VALID,0,VALID,92.8151,VALID,0,VALID,19.6248,VALID,5,VALID,0,
2011-05-10, 01:06:04,VALID,918.4,VALID,0,VALID,92.6474,VALID,0,VALID,19.6263,VALID,5,VALID,0,
2011-05-10, 01:07:04,VALID,918.417,VALID,0,VALID,92.3729,VALID,0,VALID,19.6068,VALID,5,VALID,0,
2011-05-10, 01:08:04,VALID,918.397,VALID,0,VALID,93.0133,VALID,0,VALID,19.6458,VALID,5,VALID,0.440234,
2011-05-10, 01:09:04,VALID,918.399,VALID,0,VALID,91.2752,VALID,0,VALID,19.6263,VALID,5,VALID,0,
2011-05-10, 01:10:04,VALID,918.382,VALID,0,VALID,92.1671,VALID,0,VALID,19.6653,VALID,5,VALID,0.223828,
2011-05-10, 01:11:04,VALID,918.341,VALID,0,VALID,92.2586,VALID,0,VALID,19.6848,VALID,5,VALID,0.305078,
2011-05-10, 01:12:04,VALID,918.376,VALID,0,VALID,90.0173,VALID,0,VALID,19.5483,VALID,5,VALID,0.276172,
2011-05-10, 01:13:04,VALID,918.408,VALID,0,VALID,92.2586,VALID,0,VALID,19.5288,VALID,5,VALID,0.702344,
2011-05-10, 01:14:04,VALID,918.362,VALID,0,VALID,92.3272,VALID,0,VALID,19.4703,VALID,5,VALID,0.344922,
2011-05-10, 01:15:04,VALID,918.394,VALID,0,VALID,92.8761,VALID,0,VALID,19.4313,VALID,5,VALID,0.36875,
2011-05-10, 01:16:04,VALID,918.396,VALID,0,VALID,93.2954,VALID,0,VALID,19.3908,VALID,5,VALID,0.314453,
2011-05-10, 01:17:04,VALID,918.404,VALID,0,VALID,94.1187,VALID,0,VALID,19.4493,VALID,5,VALID,0.396094,
2011-05-10, 01:18:04,VALID,918.396,VALID,0,VALID,94.4008,VALID,0,VALID,19.4688,VALID,5,VALID,0.378906,
2011-05-10, 01:19:04,VALID,918.406,VALID,0,VALID,94.355,VALID,0,VALID,19.4688,VALID,5,VALID,0.145313,
2011-05-10, 01:20:04,VALID,918.413,VALID,0,VALID,94.3855,VALID,0,VALID,19.4883,VALID,4,VALID,0.417188,
2011-05-10, 01:21:04,VALID,918.396,VALID,0,VALID,94.355,VALID,0,VALID,19.4688,VALID,4,VALID,0.348828,
2011-05-10, 01:22:04,VALID,918.406,VALID,0,VALID,94.5532,VALID,0,VALID,19.4883,VALID,4,VALID,0.515234,
2011-05-10, 01:23:04,VALID,918.417,VALID,0,VALID,94.5837,VALID,0,VALID,19.5078,VALID,4,VALID,0.590625,
2011-05-10, 01:24:04,VALID,918.417,VALID,0,VALID,94.6981,VALID,0,VALID,19.5468,VALID,4,VALID,0.482812,
2011-05-10, 01:25:04,VALID,918.388,VALID,0,VALID,94.7209,VALID,0,VALID,19.5453,VALID,4,VALID,0.426562,
2011-05-10, 01:26:04,VALID,918.365,VALID,0,VALID,94.6142,VALID,0,VALID,19.5648,VALID,4,VALID,0.327344,
2011-05-10, 01:27:04,VALID,918.357,VALID,0,VALID,94.6828,VALID,0,VALID,19.6248,VALID,4,VALID,0.533203,
2011-05-10, 01:28:04,VALID,918.333,VALID,0,VALID,93.9891,VALID,0,VALID,19.5858,VALID,4,VALID,0.675781,
2011-05-10, 01:29:04,VALID,918.354,VALID,0,VALID,94.2178,VALID,0,VALID,19.5843,VALID,4,VALID,0.577734,
2011-05-10, 01:30:04,VALID,918.339,VALID,0,VALID,94.3779,VALID,0.107441,VALID,19.6038,VALID,4,VALID,0.423047,
2011-05-10, 01:31:04,VALID,918.336,VALID,0,VALID,94.4236,VALID,0,VALID,19.6053,VALID,4,VALID,0.363281,
2011-05-10, 01:32:04,VALID,918.305,VALID,0,VALID,94.6676,VALID,0,VALID,19.6053,VALID,4,VALID,0.694922,
2011-05-10, 01:33:04,VALID,918.319,VALID,0,VALID,94.4846,VALID,0.107441,VALID,19.5858,VALID,4,VALID,0.703906,
2011-05-10, 01:34:04,VALID,918.275,VALID,0,VALID,94.7896,VALID,0,VALID,19.5858,VALID,4,VALID,0.901953,
2011-05-10, 01:35:04,VALID,918.3,VALID,0,VALID,94.942,VALID,0,VALID,19.6233,VALID,4,VALID,0.452344,
2011-05-10, 01:36:04,VALID,918.269,VALID,0,VALID,95.0564,VALID,0,VALID,19.6233,VALID,4,VALID,0.206641,
2011-05-10, 01:37:04,VALID,918.231,VALID,0,VALID,94.9344,VALID,0,VALID,19.6443,VALID,4,VALID,0.0179687,
2011-05-10, 01:38:04,VALID,918.221,VALID,0,VALID,94.7209,VALID,0,VALID,19.6263,VALID,4,VALID,0.244141,
2011-05-10, 01:39:04,VALID,918.176,VALID,0,VALID,94.9115,VALID,0,VALID,19.6848,VALID,4,VALID,0.400391,
2011-05-10, 01:40:04,VALID,918.135,VALID,0,VALID,94.9192,VALID,0,VALID,19.6833,VALID,4,VALID,0.541406,
2011-05-10, 01:41:04,VALID,918.11,VALID,0,VALID,94.8353,VALID,0,VALID,19.7028,VALID,4,VALID,0.0121094,
2011-05-10, 01:42:04,VALID,918.131,VALID,0,VALID,95.064,VALID,0,VALID,19.7433,VALID,4,VALID,0.607422,
2011-05-10, 01:43:04,VALID,918.121,VALID,0,VALID,95.1021,VALID,0,VALID,19.8018,VALID,4,VALID,1.02188,
2011-05-10, 01:44:04,VALID,918.074,VALID,0,VALID,94.7667,VALID,0,VALID,19.7628,VALID,4,VALID,0.665625,
2011-05-10, 01:45:04,VALID,918.104,VALID,0,VALID,94.0196,VALID,0,VALID,19.6653,VALID,4,VALID,0.809766,
2011-05-10, 01:46:04,VALID,918.116,VALID,0,VALID,94.0348,VALID,0,VALID,19.6053,VALID,4,VALID,0.821094,
2011-05-10, 01:47:04,VALID,918.155,VALID,0,VALID,94.4008,VALID,0,VALID,19.5873,VALID,4,VALID,0.450391,
2011-05-10, 01:48:04,VALID,918.122,VALID,0,VALID,94.7591,VALID,0,VALID,19.6458,VALID,4,VALID,0.617969,
2011-05-10, 01:49:04,VALID,918.08,VALID,0,VALID,94.6905,VALID,0,VALID,19.6068,VALID,4,VALID,0.750781,
2011-05-10, 01:50:04,VALID,918.064,VALID,0,VALID,94.9801,VALID,0,VALID,19.6458,VALID,4,VALID,0.8125,
2011-05-10, 01:51:04,VALID,918.07,VALID,0,VALID,95.2851,VALID,0,VALID,19.7223,VALID,344,VALID,0.638281,
2011-05-10, 01:52:04,VALID,918.074,VALID,0,VALID,95.1402,VALID,0,VALID,19.7613,VALID,344,VALID,0.461328,
2011-05-10, 01:53:04,VALID,918.022,VALID,0,VALID,94.8658,VALID,0,VALID,19.8003,VALID,344,VALID,0.585547,
2011-05-10, 01:54:04,VALID,918.004,VALID,0,VALID,94.599,VALID,0,VALID,19.8213,VALID,344,VALID,0.519141,
2011-05-10, 01:55:04,VALID,917.973,VALID,0,VALID,94.355,VALID,0,VALID,19.8408,VALID,344,VALID,0,
2011-05-10, 01:56:04,VALID,917.962,VALID,0,VALID,93.9129,VALID,0,VALID,19.7808,VALID,344,VALID,0.0695312,
2011-05-10, 01:57:04,VALID,917.934,VALID,0,VALID,93.1734,VALID,0,VALID,19.7043,VALID,344,VALID,0.4375,
2011-05-10, 01:58:04,VALID,917.914,VALID,0,VALID,93.9662,VALID,0,VALID,19.6833,VALID,344,VALID,0.437891,
2011-05-10, 01:59:04,VALID,917.889,VALID,0,VALID,94.2712,VALID,0,VALID,19.6638,VALID,344,VALID,0.564062,
2011-05-10, 02:00:04,VALID,917.868,VALID,0,VALID,93.89,VALID,0,VALID,19.5468,VALID,344,VALID,0.548828,
2011-05-10, 02:01:04,VALID,917.833,VALID,0,VALID,94.1797,VALID,0,VALID,19.5078,VALID,344,VALID,0.855859,
2011-05-10, 02:02:04,VALID,917.812,VALID,0,VALID,94.4465,VALID,0,VALID,19.5093,VALID,344,VALID,0.753516,
2011-05-10, 02:03:04,VALID,917.848,VALID,0,VALID,94.6523,VALID,0,VALID,19.4493,VALID,344,VALID,0.523047,
2011-05-10, 02:04:04,VALID,917.853,VALID,0,VALID,94.8658,VALID,0,VALID,19.4508,VALID,344,VALID,0.603516,
2011-05-10, 02:05:04,VALID,917.847,VALID,0,VALID,94.9954,VALID,0,VALID,19.4298,VALID,344,VALID,0.616406,
2011-05-10, 02:06:04,VALID,917.836,VALID,0,VALID,95.1707,VALID,0,VALID,19.4298,VALID,344,VALID,0.930859,
2011-05-10, 02:07:04,VALID,917.813,VALID,0,VALID,95.2927,VALID,0,VALID,19.4103,VALID,344,VALID,1.06641,
2011-05-10, 02:08:04,VALID,917.778,VALID,0,VALID,95.59,VALID,0,VALID,19.4478,VALID,344,VALID,0.835156,
2011-05-10, 02:09:04,VALID,917.773,VALID,0,VALID,95.6891,VALID,0,VALID,19.4688,VALID,345,VALID,1.01797,
2011-05-10, 02:10:04,VALID,917.737,VALID,0,VALID,95.5367,VALID,0,VALID,19.4088,VALID,345,VALID,0.992969,
2011-05-10, 02:11:04,VALID,917.735,VALID,0,VALID,95.6586,VALID,0,VALID,19.4088,VALID,346,VALID,1.08477,
2011-05-10, 02:12:04,VALID,917.721,VALID,0,VALID,95.4833,VALID,0.107441,VALID,19.3713,VALID,2,VALID,1.02734,
2011-05-10, 02:13:04,VALID,917.713,VALID,0,VALID,95.4909,VALID,0,VALID,19.3308,VALID,2,VALID,0.745703,
2011-05-10, 02:14:04,VALID,917.716,VALID,0,VALID,95.5824,VALID,0.107441,VALID,19.3128,VALID,2,VALID,0.344141,
2011-05-10, 02:15:04,VALID,917.7,VALID,0,VALID,95.712,VALID,0,VALID,19.3113,VALID,2,VALID,0.115234,
2011-05-10, 02:16:04,VALID,917.677,VALID,0,VALID,95.8187,VALID,0,VALID,19.3308,VALID,2,VALID,0.186719,
2011-05-10, 02:17:04,VALID,917.706,VALID,0,VALID,95.8873,VALID,0.107441,VALID,19.3503,VALID,2,VALID,0.142969,
2011-05-10, 02:18:04,VALID,917.691,VALID,0,VALID,95.7349,VALID,0.107441,VALID,19.3113,VALID,2,VALID,0,
2011-05-10, 02:19:04,VALID,917.713,VALID,0,VALID,95.6586,VALID,0,VALID,19.2723,VALID,2,VALID,0.0773437,
2011-05-10, 02:20:04,VALID,917.678,VALID,0,VALID,95.6357,VALID,0,VALID,19.2528,VALID,2,VALID,0.728125,
2011-05-10, 02:21:04,VALID,917.652,VALID,0,VALID,95.7501,VALID,0.107441,VALID,19.2918,VALID,2,VALID,0.699609,
2011-05-10, 02:22:04,VALID,917.637,VALID,0,VALID,95.7196,VALID,0.107441,VALID,19.2723,VALID,2,VALID,1.18164,
2011-05-10, 02:23:04,VALID,917.642,VALID,0,VALID,95.5595,VALID,0,VALID,19.2153,VALID,2,VALID,1.12734,
2011-05-10, 02:24:04,VALID,917.627,VALID,0,VALID,95.7806,VALID,0,VALID,19.2753,VALID,2,VALID,0.912891,
2011-05-10, 02:25:04,VALID,917.618,VALID,0,VALID,95.8263,VALID,0,VALID,19.2948,VALID,2,VALID,0.843359,
2011-05-10, 02:26:04,VALID,917.575,VALID,0,VALID,95.8568,VALID,0,VALID,19.3143,VALID,2,VALID,0.683984,
2011-05-10, 02:27:04,VALID,917.532,VALID,0,VALID,95.834,VALID,0,VALID,19.2933,VALID,2,VALID,0.753125,
2011-05-10, 02:28:04,VALID,917.519,VALID,0,VALID,95.8721,VALID,0,VALID,19.3128,VALID,2,VALID,0.635156,
2011-05-10, 02:29:04,VALID,917.525,VALID,0,VALID,95.5976,VALID,0,VALID,19.1958,VALID,2,VALID,0.699219,
2011-05-10, 02:30:04,VALID,917.555,VALID,0,VALID,95.4757,VALID,0,VALID,19.1583,VALID,2,VALID,1.00312,
2011-05-10, 02:31:04,VALID,917.536,VALID,0,VALID,95.4071,VALID,0,VALID,19.0788,VALID,2,VALID,0.637109,
2011-05-10, 02:32:04,VALID,917.517,VALID,0,VALID,95.3842,VALID,0,VALID,19.0593,VALID,2,VALID,0.277734,
2011-05-10, 02:33:04,VALID,917.534,VALID,0,VALID,95.3842,VALID,0,VALID,19.0593,VALID,2,VALID,0.330859,
2011-05-10, 02:34:04,VALID,917.522,VALID,0,VALID,95.4071,VALID,0,VALID,19.0593,VALID,2,VALID,0.29375,
2011-05-10, 02:35:04,VALID,917.508,VALID,0,VALID,95.5976,VALID,0,VALID,19.0983,VALID,2,VALID,0.801953,
2011-05-10, 02:36:04,VALID,917.52,VALID,0,VALID,95.9636,VALID,0,VALID,19.2558,VALID,2,VALID,0.730469,
2011-05-10, 02:37:04,VALID,917.477,VALID,0,VALID,95.9788,VALID,0,VALID,19.2738,VALID,2,VALID,0.275,
2011-05-10, 02:38:04,VALID,917.473,VALID,0,VALID,96.0855,VALID,0,VALID,19.3323,VALID,2,VALID,0.541406,
2011-05-10, 02:39:04,VALID,917.456,VALID,0,VALID,96.1008,VALID,0,VALID,19.3713,VALID,2,VALID,0.208984,
2011-05-10, 02:40:04,VALID,917.493,VALID,0,VALID,95.9483,VALID,0,VALID,19.3533,VALID,2,VALID,0.215625,
2011-05-10, 02:41:04,VALID,917.444,VALID,0,VALID,95.7654,VALID,0,VALID,19.2738,VALID,2,VALID,0.566406,
2011-05-10, 02:42:04,VALID,917.471,VALID,0,VALID,95.6586,VALID,0,VALID,19.2348,VALID,2,VALID,0.482422,
2011-05-10, 02:43:04,VALID,917.435,VALID,0,VALID,95.59,VALID,0,VALID,19.2558,VALID,2,VALID,0.474219,
2011-05-10, 02:44:04,VALID,917.425,VALID,0,VALID,95.529,VALID,0,VALID,19.1778,VALID,2,VALID,0.523828,
2011-05-10, 02:45:04,VALID,917.45,VALID,0,VALID,95.6662,VALID,0,VALID,19.2153,VALID,2,VALID,0.441406,
2011-05-10, 02:46:04,VALID,917.463,VALID,0,VALID,95.6357,VALID,0,VALID,19.2153,VALID,2,VALID,0.754687,
2011-05-10, 02:47:04,VALID,917.438,VALID,0,VALID,95.5519,VALID,0,VALID,19.2168,VALID,2,VALID,0.374609,
2011-05-10, 02:48:04,VALID,917.439,VALID,0,VALID,95.6967,VALID,0,VALID,19.2753,VALID,2,VALID,0.467578,
2011-05-10, 02:49:04,VALID,917.411,VALID,0,VALID,95.8492,VALID,0,VALID,19.3143,VALID,2,VALID,0.551953,
2011-05-10, 02:50:04,VALID,917.411,VALID,0,VALID,95.9178,VALID,0,VALID,19.3518,VALID,2,VALID,0.884766,
2011-05-10, 02:51:04,VALID,917.435,VALID,0,VALID,96.0017,VALID,0,VALID,19.4298,VALID,2,VALID,1.04141,
2011-05-10, 02:52:04,VALID,917.44,VALID,0,VALID,95.9712,VALID,0,VALID,19.4508,VALID,2,VALID,0.858984,
2011-05-10, 02:53:04,VALID,917.448,VALID,0,VALID,95.7882,VALID,0,VALID,19.4298,VALID,2,VALID,0.532812,
2011-05-10, 02:54:04,VALID,917.491,VALID,0,VALID,95.5595,VALID,0.107441,VALID,19.3908,VALID,2,VALID,0.380859,
2011-05-10, 02:55:04,VALID,917.466,VALID,0,VALID,95.0716,VALID,0,VALID,19.2723,VALID,2,VALID,0.46875,
2011-05-10, 02:56:04,VALID,917.45,VALID,0,VALID,95.125,VALID,0.107441,VALID,19.3113,VALID,2,VALID,0.381641,
2011-05-10, 02:57:04,VALID,917.431,VALID,0,VALID,95.0564,VALID,0.107441,VALID,19.2723,VALID,2,VALID,0.176563,
2011-05-10, 02:58:04,VALID,917.41,VALID,0,VALID,95.0411,VALID,0.107441,VALID,19.2334,VALID,2,VALID,0.485547,
2011-05-10, 02:59:04,VALID,917.403,VALID,0,VALID,95.0488,VALID,0.107441,VALID,19.2153,VALID,2,VALID,0.300391,
2011-05-10, 03:00:04,VALID,917.398,VALID,0,VALID,95.1783,VALID,0.107441,VALID,19.2334,VALID,2,VALID,0.246875,
2011-05-10, 03:01:04,VALID,917.388,VALID,0,VALID,95.3384,VALID,0,VALID,19.2543,VALID,2,VALID,0.145313,
2011-05-10, 03:02:04,VALID,917.367,VALID,0,VALID,95.5062,VALID,0,VALID,19.2543,VALID,2,VALID,0.0140625,
2011-05-10, 03:03:04,VALID,917.36,VALID,0,VALID,95.5519,VALID,0.107441,VALID,19.2139,VALID,2,VALID,0,
2011-05-10, 03:04:04,VALID,917.394,VALID,0,VALID,95.1479,VALID,0,VALID,19.0788,VALID,2,VALID,0.148047,
2011-05-10, 03:05:04,VALID,917.399,VALID,0,VALID,95.1783,VALID,0.107441,VALID,19.0189,VALID,2,VALID,0,
2011-05-10, 03:06:04,VALID,917.381,VALID,0,VALID,95.4223,VALID,0.107441,VALID,19.0398,VALID,2,VALID,0,
2011-05-10, 03:07:04,VALID,917.381,VALID,0,VALID,95.3766,VALID,0,VALID,19.0203,VALID,2,VALID,0,
2011-05-10, 03:08:04,VALID,917.398,VALID,0,VALID,95.1326,VALID,0,VALID,18.8839,VALID,2,VALID,0.172266,
2011-05-10, 03:09:04,VALID,917.369,VALID,0,VALID,95.6053,VALID,0.107441,VALID,18.9424,VALID,2,VALID,0.0910156,
2011-05-10, 03:10:04,VALID,917.402,VALID,0,VALID,95.9254,VALID,0.107441,VALID,18.9799,VALID,2,VALID,0,
2011-05-10, 03:11:04,VALID,917.367,VALID,0,VALID,96.1999,VALID,0.107441,VALID,19.0983,VALID,2,VALID,0.0257812,
2011-05-10, 03:12:04,VALID,917.357,VALID,0,VALID,96.3142,VALID,0.107441,VALID,19.1359,VALID,2,VALID,0,
2011-05-10, 03:13:04,VALID,917.323,VALID,0,VALID,96.3371,VALID,0,VALID,19.1554,VALID,2,VALID,0.0769531,
2011-05-10, 03:14:04,VALID,917.35,VALID,0,VALID,96.1236,VALID,0,VALID,19.0983,VALID,2,VALID,0.0578125,
2011-05-10, 03:15:04,VALID,917.355,VALID,0,VALID,96.177,VALID,0.107441,VALID,19.0774,VALID,2,VALID,0.603125,
2011-05-10, 03:16:04,VALID,917.35,VALID,0,VALID,96.4438,VALID,0,VALID,19.2348,VALID,2,VALID,0.457422,
2011-05-10, 03:17:04,VALID,917.347,VALID,0,VALID,96.5048,VALID,0,VALID,19.3308,VALID,2,VALID,0.146094,
2011-05-10, 03:18:04,VALID,917.317,VALID,0,VALID,96.2151,VALID,0.107441,VALID,19.2334,VALID,2,VALID,0.237891,
2011-05-10, 03:19:04,VALID,917.327,VALID,0,VALID,96.1846,VALID,0.107441,VALID,19.2334,VALID,2,VALID,0.460156,
2011-05-10, 03:20:04,VALID,917.362,VALID,0,VALID,96.4133,VALID,0.107441,VALID,19.3128,VALID,2,VALID,0.742188,
2011-05-10, 03:21:04,VALID,917.366,VALID,0,VALID,96.3676,VALID,0,VALID,19.2918,VALID,2,VALID,0.775391,
2011-05-10, 03:22:04,VALID,917.395,VALID,0,VALID,96.2609,VALID,0,VALID,19.3503,VALID,2,VALID,0.436328,
2011-05-10, 03:23:04,VALID,917.41,VALID,0,VALID,96.0855,VALID,0,VALID,19.2933,VALID,2,VALID,0.0960938,
2011-05-10, 03:24:04,VALID,917.439,VALID,0,VALID,95.9331,VALID,0,VALID,19.2753,VALID,2,VALID,0.382813,
2011-05-10, 03:25:04,VALID,917.456,VALID,0,VALID,95.7425,VALID,0,VALID,19.2363,VALID,2,VALID,0.471484,
2011-05-10, 03:26:04,VALID,917.442,VALID,0,VALID,95.6891,VALID,0,VALID,19.2543,VALID,2,VALID,0.170703,
2011-05-10, 03:27:04,VALID,917.417,VALID,0,VALID,95.6739,VALID,0,VALID,19.2363,VALID,2,VALID,0.115234,
2011-05-10, 03:28:04,VALID,917.435,VALID,0,VALID,95.4528,VALID,0,VALID,19.1778,VALID,2,VALID,0.301172,
2011-05-10, 03:29:04,VALID,917.43,VALID,0,VALID,95.6129,VALID,0,VALID,19.1763,VALID,2,VALID,0.179688,
2011-05-10, 03:30:04,VALID,917.451,VALID,0,VALID,95.6053,VALID,0,VALID,19.1778,VALID,2,VALID,0.182031,
2011-05-10, 03:31:04,VALID,917.471,VALID,0,VALID,95.895,VALID,0,VALID,19.2543,VALID,2,VALID,0.560547,
2011-05-10, 03:32:04,VALID,917.47,VALID,0,VALID,96.0703,VALID,0,VALID,19.3323,VALID,2,VALID,0.334375,
2011-05-10, 03:33:04,VALID,917.436,VALID,0,VALID,96.1694,VALID,0,VALID,19.4313,VALID,2,VALID,0.244922,
2011-05-10, 03:34:04,VALID,917.428,VALID,0,VALID,95.2241,VALID,0,VALID,19.1373,VALID,2,VALID,0.0214844,
2011-05-10, 03:35:04,VALID,917.454,VALID,0,VALID,94.5685,VALID,0,VALID,19.0398,VALID,2,VALID,0,
2011-05-10, 03:36:04,VALID,917.46,VALID,0,VALID,95.003,VALID,0,VALID,19.0998,VALID,2,VALID,0.118359,
2011-05-10, 03:37:04,VALID,917.446,VALID,0,VALID,95.2165,VALID,0,VALID,19.1178,VALID,2,VALID,0,
2011-05-10, 03:38:04,VALID,917.434,VALID,0,VALID,95.3079,VALID,0.107441,VALID,19.1373,VALID,2,VALID,0,
2011-05-10, 03:39:04,VALID,917.444,VALID,0,VALID,95.4604,VALID,0.107441,VALID,19.1763,VALID,2,VALID,0,
2011-05-10, 03:40:04,VALID,917.433,VALID,0,VALID,95.5824,VALID,0.107441,VALID,19.1749,VALID,2,VALID,0.0472656,
2011-05-10, 03:41:04,VALID,917.435,VALID,0,VALID,95.4528,VALID,0.107441,VALID,19.1568,VALID,2,VALID,0.320313,
2011-05-10, 03:42:04,VALID,917.428,VALID,0,VALID,95.6281,VALID,0.107441,VALID,19.1763,VALID,2,VALID,0.415234,
2011-05-10, 03:43:04,VALID,917.419,VALID,0,VALID,95.8187,VALID,0,VALID,19.2348,VALID,2,VALID,0.409766,
2011-05-10, 03:44:04,VALID,917.369,VALID,0,VALID,95.8645,VALID,0.107441,VALID,19.2334,VALID,2,VALID,0.216797,
2011-05-10, 03:45:04,VALID,917.374,VALID,0,VALID,95.8187,VALID,0.107441,VALID,19.2334,VALID,2,VALID,0.395312,
2011-05-10, 03:46:04,VALID,917.325,VALID,0,VALID,95.6815,VALID,0.107441,VALID,19.1749,VALID,2,VALID,0.577734,
2011-05-10, 03:47:04,VALID,917.321,VALID,0,VALID,95.4452,VALID,0.107441,VALID,19.1178,VALID,2,VALID,0.435156,